sat.trackr.live / text

‹ back to catalog

STARLINK-32587

NORAD 62180 · 2024-225T

PAYLOAD ACTIVE UNKNOWN

§ Identity

Operator
Country
US
Launch date
2024-11-30
Launch site
AFWTR
Launch vehicle
Mass (kg)
RCS (m²)

Purposes: comms

External: N2YO · Heavens-Above · Gunter

§ Orbital elements

Epoch: 2026-05-24T21:42:28.719648Z

Period
96.11 min
Inclination
70.0022°
Eccentricity
0.0003218
Mean motion
14.98347992 rev/d
Perigee alt
569.8 km
Apogee alt
574.2 km
Semi-major
6,950.1 km
B*
-4.1085e-4
RAAN
332.1080°
Arg perigee
264.3697°
Mean anomaly
95.7095°
Rev number
8,129

§ Raw data

STARLINK-325871 62180U 24225T   26144.90449907 -.00004994  00000+0 -41085-3 0  99992 62180  70.0022 332.1080 0003218 264.3697  95.7095 14.98347992 81299

JSON: /api/v1/satellites/62180 · /tle

For live sub-satellite position, see the globe view (requires WebGL).

§ Visibility from observer

Set your observer location to see the next 7 days of passes ≥ 10°. The values pass through the URL so the page stays shareable.

No JS? Fill the form by hand. The geolocation button needs JavaScript.